Location: East Irvine
(33.6759°N, 117.7598°W)
Time: 00:25:16
(UTC+00:00)

CZ-3 R/B - Pass Details

Date: 15 November 2025
Orbit: 547 x 10009 km, 28.3° (Epoch: 07 December)

Event Time Altitude Azimuth Distance (km) Brightness Sun altitude
Rises 10:19:42 0° 240° (WSW) 13,708 7.0 -50.5°
Enters shadow 10:24:42 - 240° (WSW) 12,934 6.9 -49.5°
Exits shadow 11:03:25 46° 211° (SSW) 4,181 4.3 -41.5°
Maximum altitude 11:08:33 55° 170° (S) 3,033 3.8 -40.5°
Drops below altitude 10° 11:17:32 10° 94° (E) 3,470 5.1 -38.6°
Sets 11:19:30 0° 89° (E) 4,036 5.7 -38.2°
